| time (UTC) | temp F | wind direction | speed MPH | gust MPH | rain 1hr in | rain 24hr in | rain mn in | humidity % | barometer mb |
| 20260508180100 | 71 | 163 | 1.0 | 0.0 | 0.00 | 0.00 | 0.00 | 28 | 1011.7 |
| 20260508174547 | 70 | 163 | 2.0 | 0.0 | 0.00 | 0.00 | 0.00 | 29 | 1011.8 |
| 20260508173020 | 70 | 186 | 3.0 | 0.0 | 0.00 | 0.00 | 0.00 | 32 | 1011.8 |
| 20260508171555 | 70 | 57 | 1.0 | 0.0 | 0.00 | 0.00 | 0.00 | 28 | 1011.7 |
| 20260508170058 | 70 | 29 | 2.0 | 0.0 | 0.00 | 0.00 | 0.00 | 29 | 1011.7 |
| 20260508164544 | 69 | 29 | 2.0 | 0.0 | 0.00 | 0.00 | 0.00 | 32 | 1011.6 |
| 20260508163002 | 69 | 37 | 1.0 | 0.0 | 0.00 | 0.00 | 0.00 | 33 | 1011.6 |
| 20260508161603 | 68 | 39 | 1.0 | 0.0 | 0.00 | 0.00 | 0.00 | 34 | 1011.5 |
| 20260508160048 | 68 | 29 | 1.0 | 0.0 | 0.00 | 0.00 | 0.00 | 33 | 1011.3 |
| 20260508154543 | 67 | 29 | 0.0 | 0.0 | 0.00 | 0.00 | 0.00 | 38 | 1011.4 |
| 20260508153004 | 66 | 29 | 0.0 | 0.0 | 0.00 | 0.00 | 0.00 | 37 | 1011.3 |
| 20260508151558 | 65 | 29 | 0.0 | 0.0 | 0.00 | 0.00 | 0.00 | 39 | 1011.3 |
| 20260508150037 | 62 | 29 | 0.0 | 0.0 | 0.00 | 0.00 | 0.00 | 43 | 1011.3 |
| 20260508144524 | 60 | 29 | 0.0 | 0.0 | 0.00 | 0.00 | 0.00 | 49 | 1011.2 |
| 20260508143018 | 58 | 29 | 0.0 | 0.0 | 0.00 | 0.00 | 0.00 | 48 | 1011.3 |
| 20260508141603 | 57 | 29 | 0.0 | 0.0 | 0.00 | 0.00 | 0.00 | 51 | 1011.1 |
| 20260508140047 | 55 | 29 | 0.0 | 0.0 | 0.00 | 0.00 | 0.00 | 56 | 1011.2 |
| 20260508134520 | 52 | 29 | 0.0 | 0.0 | 0.00 | 0.00 | 0.00 | 61 | 1011.2 |
| 20260508133105 | 50 | 29 | 0.0 | 0.0 | 0.00 | 0.00 | 0.00 | 61 | 1010.9 |
| 20260508131552 | 49 | 29 | 0.0 | 0.0 | 0.00 | 0.00 | 0.00 | 60 | 1010.8 |
| 20260508130042 | 49 | 29 | 0.0 | 0.0 | 0.00 | 0.00 | 0.00 | 60 | 1010.6 |
| 20260508124529 | 49 | 29 | 0.0 | 0.0 | 0.00 | 0.00 | 0.00 | 60 | 1010.4 |
| 20260508123019 | 49 | 29 | 0.0 | 0.0 | 0.00 | 0.00 | 0.00 | 60 | 1010.3 |
| 20260508121611 | 49 | 29 | 0.0 | 0.0 | 0.00 | 0.00 | 0.00 | 58 | 1010.0 |
| 20260508120037 | 50 | 29 | 0.0 | 0.0 | 0.00 | 0.00 | 0.00 | 58 | 1010.0 |
| 20260508114526 | 50 | 29 | 0.0 | 0.0 | 0.00 | 0.00 | 0.00 | 58 | 1009.9 |
| 20260508113008 | 50 | 29 | 0.0 | 0.0 | 0.00 | 0.00 | 0.00 | 58 | 1009.7 |
| 20260508111611 | 50 | 29 | 0.0 | 0.0 | 0.00 | 0.00 | 0.00 | 57 | 1009.6 |
| 20260508110050 | 50 | 29 | 0.0 | 0.0 | 0.00 | 0.00 | 0.00 | 57 | 1009.7 |
| 20260508104526 | 51 | 29 | 0.0 | 0.0 | 0.00 | 0.00 | 0.00 | 56 | 1009.8 |
| 20260508103014 | 51 | 29 | 0.0 | 0.0 | 0.00 | 0.00 | 0.00 | 56 | 1009.9 |
| 20260508101515 | 51 | 29 | 0.0 | 0.0 | 0.00 | 0.00 | 0.00 | 55 | 1009.7 |
| 20260508100006 | 51 | 29 | 0.0 | 0.0 | 0.00 | 0.00 | 0.00 | 55 | 1009.8 |
| 20260508094600 | 52 | 29 | 0.0 | 0.0 | 0.00 | 0.00 | 0.00 | 54 | 1009.7 |
| 20260508093029 | 51 | 29 | 0.0 | 0.0 | 0.00 | 0.00 | 0.00 | 55 | 1009.6 |
| 20260508091536 | 51 | 29 | 0.0 | 0.0 | 0.00 | 0.00 | 0.00 | 55 | 1009.6 |
| 20260508090004 | 51 | 29 | 0.0 | 0.0 | 0.00 | 0.00 | 0.00 | 55 | 1009.8 |
| 20260508084555 | 52 | 29 | 0.0 | 0.0 | 0.00 | 0.00 | 0.00 | 55 | 1009.7 |
| 20260508083038 | 52 | 29 | 0.0 | 0.0 | 0.00 | 0.00 | 0.00 | 54 | 1009.9 |
| 20260508081532 | 52 | 29 | 0.0 | 0.0 | 0.00 | 0.00 | 0.00 | 52 | 1009.7 |
| 20260508080112 | 53 | 29 | 0.0 | 0.0 | 0.00 | 0.00 | 0.00 | 51 | 1009.8 |
| 20260508074504 | 54 | 29 | 0.0 | 0.0 | 0.00 | 0.00 | 0.00 | 51 | 1009.9 |
| 20260508073109 | 54 | 29 | 0.0 | 0.0 | 0.00 | 0.00 | 0.00 | 49 | 1009.5 |
| 20260508071602 | 55 | 29 | 0.0 | 0.0 | 0.00 | 0.00 | 0.00 | 49 | 1009.5 |
| 20260508070052 | 55 | 29 | 0.0 | 0.0 | 0.00 | 0.00 | 0.00 | 48 | 1009.5 |
| 20260508064533 | 55 | 29 | 0.0 | 0.0 | 0.00 | 0.00 | 0.00 | 47 | 1009.4 |
| 20260508063005 | 56 | 29 | 0.0 | 0.0 | 0.00 | 0.00 | 0.00 | 47 | 1009.3 |
| 20260508061605 | 56 | 29 | 0.0 | 0.0 | 0.00 | 0.00 | 0.00 | 46 | 1009.5 |
| 20260508060058 | 57 | 29 | 0.0 | 0.0 | 0.00 | 0.00 | 0.00 | 45 | 1009.4 |
| 20260508054608 | 57 | 29 | 0.0 | 0.0 | 0.00 | 0.00 | 0.00 | 45 | 1009.1 |
| 20260508053016 | 57 | 29 | 0.0 | 0.0 | 0.00 | 0.00 | 0.00 | 45 | 1009.2 |
| 20260508051559 | 57 | 29 | 0.0 | 0.0 | 0.00 | 0.00 | 0.00 | 46 | 1009.4 |
| 20260508050047 | 58 | 29 | 0.0 | 0.0 | 0.00 | 0.00 | 0.00 | 45 | 1009.3 |
| 20260508044539 | 58 | 29 | 0.0 | 0.0 | 0.00 | 0.00 | 0.00 | 44 | 1009.5 |
| 20260508043026 | 59 | 29 | 0.0 | 0.0 | 0.00 | 0.00 | 0.00 | 43 | 1009.3 |
| 20260508041520 | 60 | 29 | 0.0 | 0.0 | 0.00 | 0.00 | 0.00 | 42 | 1009.3 |
| 20260508040103 | 61 | 29 | 0.0 | 0.0 | 0.00 | 0.00 | 0.00 | 40 | 1009.0 |
| 20260508034548 | 61 | 29 | 0.0 | 0.0 | 0.00 | 0.00 | 0.00 | 39 | 1008.9 |
| 20260508033036 | 62 | 29 | 0.0 | 0.0 | 0.00 | 0.00 | 0.00 | 38 | 1009.0 |
| 20260508031538 | 62 | 29 | 0.0 | 0.0 | 0.00 | 0.00 | 0.00 | 40 | 1008.8 |
| 20260508030028 | 64 | 29 | 0.0 | 0.0 | 0.00 | 0.00 | 0.00 | 38 | 1008.7 |
| 20260508024514 | 65 | 29 | 0.0 | 0.0 | 0.00 | 0.00 | 0.00 | 38 | 1008.7 |
| 20260508023102 | 66 | 29 | 0.0 | 0.0 | 0.00 | 0.00 | 0.00 | 37 | 1008.7 |
| 20260508021556 | 68 | 29 | 0.0 | 0.0 | 0.00 | 0.00 | 0.00 | 33 | 1008.7 |
| 20260508014536 | 72 | 29 | 0.0 | 0.0 | 0.00 | 0.00 | 0.00 | 28 | 1008.4 |
| 20260508013014 | 73 | 29 | 1.0 | 0.0 | 0.00 | 0.00 | 0.00 | 28 | 1008.6 |
| 20260508011521 | 73 | 29 | 0.0 | 0.0 | 0.00 | 0.00 | 0.00 | 30 | 1008.7 |
| 20260508010116 | 72 | 29 | 1.0 | 0.0 | 0.00 | 0.00 | 0.00 | 28 | 1008.8 |
| 20260508004551 | 72 | 29 | 2.0 | 0.0 | 0.00 | 0.00 | 0.00 | 27 | 1008.9 |
| 20260508003047 | 72 | 29 | 0.0 | 0.0 | 0.00 | 0.00 | 0.00 | 30 | 1009.3 |
| 20260508001544 | 72 | 29 | 0.0 | 0.0 | 0.00 | 0.00 | 0.00 | 28 | 1009.1 |
| 20260508000025 | 72 | 29 | 0.0 | 0.0 | 0.00 | 0.00 | 0.00 | 26 | 1009.3 |
| 20260507234505 | 73 | 29 | 0.0 | 0.0 | 0.00 | 0.00 | 0.00 | 27 | 1009.7 |
| 20260507233052 | 75 | 29 | 1.0 | 0.0 | 0.00 | 0.00 | 0.00 | 26 | 1009.8 |
| 20260507231539 | 74 | 29 | 1.0 | 0.0 | 0.00 | 0.00 | 0.00 | 26 | 1010.1 |
| 20260507230025 | 74 | 29 | 2.0 | 0.0 | 0.00 | 0.00 | 0.00 | 25 | 1010.5 |
| 20260507224507 | 74 | 32 | 2.0 | 0.0 | 0.00 | 0.00 | 0.00 | 26 | 1010.6 |
| 20260507223005 | 74 | 333 | 1.0 | 0.0 | 0.00 | 0.00 | 0.00 | 27 | 1011.0 |
| 20260507221541 | 74 | 308 | 2.0 | 0.0 | 0.00 | 0.00 | 0.00 | 26 | 1011.1 |
| 20260507220008 | 74 | 32 | 1.0 | 0.0 | 0.00 | 0.00 | 0.00 | 25 | 1011.3 |
| 20260507214556 | 74 | 32 | 2.0 | 0.0 | 0.00 | 0.00 | 0.00 | 26 | 1011.5 |
| 20260507213019 | 75 | 236 | 2.0 | 0.0 | 0.00 | 0.00 | 0.00 | 25 | 1011.6 |
| 20260507211514 | 74 | 236 | 2.0 | 0.0 | 0.00 | 0.00 | 0.00 | 25 | 1011.8 |
| 20260507210055 | 73 | 240 | 2.0 | 0.0 | 0.00 | 0.00 | 0.00 | 24 | 1012.3 |
| 20260507204543 | 73 | 237 | 2.0 | 0.0 | 0.00 | 0.00 | 0.00 | 25 | 1012.5 |
| 20260507203021 | 74 | 240 | 2.0 | 0.0 | 0.00 | 0.00 | 0.00 | 24 | 1012.6 |
| 20260507201505 | 72 | 299 | 1.0 | 0.0 | 0.00 | 0.00 | 0.00 | 24 | 1012.9 |
| 20260507200100 | 71 | 299 | 1.0 | 0.0 | 0.00 | 0.00 | 0.00 | 26 | 1013.0 |
| 20260507194607 | 71 | 298 | 1.0 | 0.0 | 0.00 | 0.00 | 0.00 | 25 | 1013.2 |
| 20260507193047 | 71 | 289 | 2.0 | 0.0 | 0.00 | 0.00 | 0.00 | 25 | 1013.3 |
| 20260507191543 | 70 | 290 | 2.0 | 0.0 | 0.00 | 0.00 | 0.00 | 25 | 1013.5 |
| 20260507190024 | 70 | 293 | 1.0 | 0.0 | 0.00 | 0.00 | 0.00 | 27 | 1013.6 |
| 20260507184524 | 70 | 294 | 1.0 | 0.0 | 0.00 | 0.00 | 0.00 | 27 | 1013.9 |
| 20260507183013 | 69 | 307 | 0.0 | 0.0 | 0.00 | 0.00 | 0.00 | 31 | 1014.1 |
| 20260507181559 | 68 | 307 | 0.0 | 0.0 | 0.00 | 0.00 | 0.00 | 32 | 1014.3 |